Stündliche Wetter Dabaozi

Heute, 28 Oktober, Mittwoch

Zeit Temperatur Niederschläge Wind Luftdruck Luftfeuchtigkeit
00:00 +18°C° 0 mm 1 m/S 723 mmHg 77%
01:00 +18°C° 0 mm 1 m/S 723 mmHg 76%
02:00 +18°C° 0 mm 1 m/S 723 mmHg 78%
03:00 +18°C° 0 mm 1 m/S 723 mmHg 79%
04:00 +16°C° 0 mm 1 m/S 723 mmHg 80%
05:00 +16°C° 0 mm 1 m/S 723 mmHg 80%
06:00 +16°C° 0 mm 1 m/S 724 mmHg 79%
07:00 +18°C° 0 mm 1 m/S 724 mmHg 81%
08:00 +17°C° 0 mm 2 m/S 724 mmHg 79%
09:00 +17°C° 0 mm 2 m/S 725 mmHg 77%
10:00 +18°C° 0 mm 2 m/S 725 mmHg 75%
11:00 +18°C° 0 mm 3 m/S 724 mmHg 75%
12:00 +18°C° 0 mm 3 m/S 724 mmHg 75%
13:00 +17°C° 0 mm 2 m/S 723 mmHg 74%
14:00 +17°C° 0 mm 2 m/S 723 mmHg 74%
15:00 +17°C° 0 mm 2 m/S 723 mmHg 75%
16:00 +18°C° 0 mm 1 m/S 723 mmHg 75%
17:00 +16°C° 0 mm 1 m/S 723 mmHg 78%
18:00 +16°C° 0 mm 1 m/S 724 mmHg 80%
19:00 +15°C° 0 mm 2 m/S 724 mmHg 83%
20:00 +15°C° 0 mm 1 m/S 725 mmHg 80%
21:00 +15°C° 0 mm 1 m/S 725 mmHg 78%
22:00 +15°C° 0 mm 1 m/S 726 mmHg 76%
23:00 +14°C° 0 mm 1 m/S 725 mmHg 77%

Morgen, 29 Oktober, Donnerstag

Zeit Temperatur Niederschläge Wind Luftdruck Luftfeuchtigkeit
00:00 +14°C° 0 mm 1 m/S 725 mmHg 78%
01:00 +13°C° 0 mm 1 m/S 724 mmHg 80%
02:00 +13°C° 0 mm 1 m/S 724 mmHg 81%
03:00 +13°C° 0 mm 1 m/S 724 mmHg 81%
04:00 +12°C° 0 mm 1 m/S 724 mmHg 82%
05:00 +13°C° 0 mm 1 m/S 725 mmHg 81%
06:00 +13°C° 0 mm 1 m/S 725 mmHg 79%
07:00 +14°C° 0 mm 1 m/S 725 mmHg 78%
08:00 +15°C° 0 mm 1 m/S 725 mmHg 74%
09:00 +16°C° 0 mm 1 m/S 726 mmHg 69%
10:00 +19°C° 0 mm 1 m/S 726 mmHg 64%
11:00 +20°C° 0 mm 1 m/S 725 mmHg 63%
12:00 +20°C° 0 mm 1 m/S 725 mmHg 62%
13:00 +21°C° 0 mm 1 m/S 724 mmHg 61%
14:00 +21°C° 0 mm 1 m/S 724 mmHg 65%
15:00 +21°C° 0 mm 1 m/S 724 mmHg 68%
16:00 +20°C° 0 mm 1 m/S 724 mmHg 72%
17:00 +19°C° 0 mm 1 m/S 724 mmHg 74%
18:00 +18°C° 0 mm 1 m/S 724 mmHg 77%
19:00 +16°C° 0 mm 0 m/S 724 mmHg 80%
20:00 +15°C° 0 mm 0 m/S 725 mmHg 80%
21:00 +15°C° 0 mm 0 m/S 725 mmHg 80%
22:00 +15°C° 0 mm 0 m/S 725 mmHg 81%
23:00 +15°C° 0 mm 0 m/S 725 mmHg 81%

übermorgen, 30 Oktober, Freitag

Zeit Temperatur Niederschläge Wind Luftdruck Luftfeuchtigkeit
00:00 +15°C° 0 mm 0 m/S 724 mmHg 81%
01:00 +15°C° 0 mm 0 m/S 724 mmHg 82%
02:00 +16°C° 0 mm 1 m/S 724 mmHg 82%
03:00 +16°C° 0 mm 1 m/S 724 mmHg 83%
04:00 +16°C° 0 mm 1 m/S 724 mmHg 84%
05:00 +15°C° 0 mm 0 m/S 724 mmHg 84%
06:00 +15°C° 0 mm 0 m/S 724 mmHg 84%
07:00 +15°C° 0 mm 0 m/S 725 mmHg 84%
08:00 +18°C° 0 mm 1 m/S 725 mmHg 81%
09:00 +19°C° 0 mm 1 m/S 725 mmHg 78%
10:00 +20°C° 0 mm 1 m/S 725 mmHg 75%
11:00 +20°C° 0 mm 1 m/S 724 mmHg 73%
12:00 +21°C° 0 mm 1 m/S 723 mmHg 72%
13:00 +21°C° 0 mm 1 m/S 723 mmHg 71%
14:00 +21°C° 0 mm 1 m/S 723 mmHg 74%
15:00 +20°C° 0 mm 1 m/S 722 mmHg 76%
16:00 +20°C° 0 mm 1 m/S 722 mmHg 78%
17:00 +19°C° 0 mm 1 m/S 722 mmHg 82%
18:00 +18°C° 0 mm 1 m/S 723 mmHg 86%
19:00 +18°C° 0 mm 1 m/S 723 mmHg 89%
20:00 +18°C° 0 mm 1 m/S 723 mmHg 88%
21:00 +18°C° 0 mm 1 m/S 723 mmHg 87%
22:00 +18°C° 0 mm 1 m/S 724 mmHg 86%
23:00 +16°C° 0 mm 0 m/S 723 mmHg 86%

31 Oktober, Samstag

Zeit Temperatur Niederschläge Wind Luftdruck Luftfeuchtigkeit
00:00 +16°C° 0 mm 0 m/S 723 mmHg 86%
01:00 +16°C° 0 mm 0 m/S 723 mmHg 85%
02:00 +16°C° 0 mm 0 m/S 723 mmHg 86%
03:00 +16°C° 0 mm 0 m/S 722 mmHg 86%
04:00 +15°C° 0 mm 0 m/S 722 mmHg 86%
05:00 +15°C° 0 mm 0 m/S 722 mmHg 87%
06:00 +16°C° 0 mm 0 m/S 723 mmHg 87%
07:00 +16°C° 0 mm 0 m/S 723 mmHg 87%
08:00 +16°C° 0 mm 0 m/S 723 mmHg 87%
09:00 +16°C° 0 mm 0 m/S 723 mmHg 86%
10:00 +16°C° 0 mm 0 m/S 723 mmHg 86%
11:00 +18°C° 0 mm 1 m/S 723 mmHg 86%
12:00 +18°C° 0 mm 1 m/S 722 mmHg 86%
13:00 +18°C° 0 mm 1 m/S 721 mmHg 86%
14:00 +18°C° 0 mm 1 m/S 721 mmHg 87%
15:00 +18°C° 0 mm 1 m/S 721 mmHg 87%
16:00 +18°C° 0 mm 1 m/S 721 mmHg 88%
17:00 +18°C° 0 mm 1 m/S 721 mmHg 90%
18:00 +16°C° 0 mm 1 m/S 722 mmHg 92%
19:00 +15°C° 0 mm 0 m/S 722 mmHg 94%
20:00 +15°C° 0 mm 0 m/S 722 mmHg 94%
21:00 +15°C° 0 mm 0 m/S 722 mmHg 94%
22:00 +16°C° 0 mm 1 m/S 722 mmHg 93%
23:00 +15°C° 0 mm 0 m/S 722 mmHg 93%

1 November, Sonntag

Zeit Temperatur Niederschläge Wind Luftdruck Luftfeuchtigkeit
00:00 +15°C° 0 mm 0 m/S 722 mmHg 94%
01:00 +15°C° 0 mm 0 m/S 721 mmHg 94%
02:00 +15°C° 0 mm 0 m/S 721 mmHg 94%
03:00 +15°C° 0 mm 0 m/S 721 mmHg 94%
04:00 +15°C° 0 mm 0 m/S 721 mmHg 95%
05:00 +15°C° 0.1 mm 0 m/S 722 mmHg 95%
06:00 +15°C° 0.1 mm 0 m/S 722 mmHg 95%
07:00 +16°C° 0.1 mm 1 m/S 722 mmHg 95%
08:00 +18°C° 0.1 mm 1 m/S 722 mmHg 94%
09:00 +18°C° 0.1 mm 1 m/S 722 mmHg 93%
10:00 +18°C° 0.1 mm 1 m/S 722 mmHg 93%
11:00 +18°C° 0.1 mm 1 m/S 722 mmHg 94%
12:00 +18°C° 0.1 mm 1 m/S 721 mmHg 94%
13:00 +18°C° 0.1 mm 1 m/S 721 mmHg 95%
14:00 +18°C° 0.1 mm 1 m/S 721 mmHg 95%
15:00 +18°C° 0.1 mm 1 m/S 721 mmHg 96%
16:00 +18°C° 0.1 mm 1 m/S 721 mmHg 96%
17:00 +16°C° 0.2 mm 2 m/S 721 mmHg 96%
18:00 +16°C° 0.2 mm 2 m/S 722 mmHg 96%
19:00 +16°C° 0.2 mm 2 m/S 722 mmHg 95%
20:00 +15°C° 0.3 mm 2 m/S 723 mmHg 95%
21:00 +15°C° 0.3 mm 2 m/S 723 mmHg 95%
22:00 +14°C° 0.3 mm 2 m/S 723 mmHg 95%
23:00 +14°C° 0.4 mm 2 m/S 724 mmHg 95%

2 November, Montag

Zeit Temperatur Niederschläge Wind Luftdruck Luftfeuchtigkeit
00:00 +13°C° 0.4 mm 3 m/S 724 mmHg 95%
01:00 +12°C° 0.4 mm 3 m/S 724 mmHg 95%
02:00 +12°C° 0.3 mm 3 m/S 724 mmHg 94%
03:00 +11°C° 0.3 mm 3 m/S 724 mmHg 94%
04:00 +12°C° 0.3 mm 2 m/S 724 mmHg 94%
05:00 +12°C° 0.4 mm 2 m/S 725 mmHg 94%
06:00 +10°C° 0.4 mm 2 m/S 725 mmHg 94%
07:00 +10°C° 0.4 mm 2 m/S 726 mmHg 94%
08:00 +10°C° 0.1 mm 2 m/S 726 mmHg 93%
09:00 +10°C° 0.1 mm 2 m/S 726 mmHg 92%
10:00 +10°C° 0.1 mm 2 m/S 726 mmHg 91%
11:00 +10°C° 0.1 mm 2 m/S 726 mmHg 91%
12:00 +10°C° 0.1 mm 2 m/S 725 mmHg 91%
13:00 +10°C° 0.1 mm 2 m/S 725 mmHg 91%
14:00 +10°C° 0.1 mm 2 m/S 724 mmHg 91%
15:00 +10°C° 0.1 mm 2 m/S 724 mmHg 91%
16:00 +10°C° 0.1 mm 2 m/S 724 mmHg 92%
17:00 +10°C° 0 mm 2 m/S 724 mmHg 92%
18:00 +11°C° 0 mm 1 m/S 725 mmHg 92%
19:00 +11°C° 0 mm 1 m/S 725 mmHg 92%
20:00 +11°C° 0 mm 1 m/S 725 mmHg 92%
21:00 +11°C° 0 mm 1 m/S 725 mmHg 92%
22:00 +11°C° 0 mm 1 m/S 725 mmHg 92%
23:00 +11°C° 0 mm 1 m/S 725 mmHg 92%
Mehr zeigen

Wir brauchen deine Erlaubnis

Meteoprog und unser Service Anbieter werden persönliche Daten aufbewahren, so wie Cookies, Geräte Bezeichnung oder ähnliche Technologien von deinem Gerät und Prozess, so wie Persönliche Daten Inhalte und Werbungen, genauso wie social Media und den Verkehr zu analysieren.

  • Aufbewahrung und/oder Zugang zu deiner Geräte Informationen.

    Cookies, Geräte Bezeichnung oder andere Informationen, können aufbewahrt oder Zugang zu deinem Gerät erhalten, für den Grund, der oben angegeben wird.

  • Personalisierte Werbung und Inhalte, Messungen, Einblick in das Publikum und Produkt Entwicklung.

    Werbungen und Inhalte können personalisiert werden, basierend auf ein Profil. Mehr Daten können besser personalisierte Werbungen und Inhalte hinzufügen. Werbung und Inhalte können gezeigt und gemessen werden. Einblicke über das Publikum, welche die Werbung gesehen haben und den Inhalt, können abgeleitet werden. So wie Daten können genutzt werden, um es zu verbessern oder die Benutzer Erfahrung zu verbessern das System und die Software.

Wenn du “Ich stimme zu” klickst, erlaubst du uns, die Cookies zu benutzen die Geräte Bezeichnung, den Web oder ähnliche Technologien zu benutzen. Deine Settings, können in deinem Gerät bei deinem Browser geändert werden.

Für den bestimmten Zweck, berechtigten Interessen beruhen darauf, mehr als auf den Inhalt. Du kannst mehr darüber in unseren Privaten und Cookie Politik lesen.